This is the latest recevied weather packets stored in our database for station/object IZ5MMH-14. If no packets are shown the sender has not sent any weather packets the latest 10 day(s).
| Time | Temp. | Humidity | Pressure | Rain* | Wind** | Luminosity | Snow |
|---|---|---|---|---|---|---|---|
| 1777819809 | 23.89° C | 54% | 1018.5 hPa | - | - | - | - |
| 1777819209 | 23.89° C | 54% | 1018.5 hPa | - | - | - | - |
| 1777818609 | 23.89° C | 52% | 1018.6 hPa | - | - | - | - |
| 1777818009 | 23.89° C | 56% | 1018.8 hPa | - | - | - | - |
| 1777817409 | 25.56° C | 50% | 1018.9 hPa | - | - | - | - |
| 1777816810 | 25.56° C | 50% | 1019.1 hPa | - | - | - | - |
| 1777816209 | 24.44° C | 52% | 1019.2 hPa | - | - | - | - |
| 1777815609 | 25° C | 56% | 1019.4 hPa | - | - | - | - |
| 1777815009 | 25.56° C | 54% | 1019.5 hPa | - | - | - | - |
| 1777814410 | 25.56° C | 53% | 1019.6 hPa | - | - | - | - |
| 1777813809 | 25.56° C | 53% | 1019.7 hPa | - | - | - | - |
| 1777813209 | 25° C | 54% | 1019.9 hPa | - | - | - | - |
| 1777812609 | 26.11° C | 53% | 1020 hPa | - | - | - | - |
| 1777812009 | 25.56° C | 54% | 1020.2 hPa | - | - | - | - |
| 1777811409 | 24.44° C | 54% | 1020.5 hPa | - | - | - | - |
| 1777810809 | 25.56° C | 52% | 1020.6 hPa | - | - | - | - |
| 1777810209 | 25.56° C | 50% | 1020.5 hPa | - | - | - | - |
| 1777809609 | 25.56° C | 52% | 1020.7 hPa | - | - | - | - |
| 1777809009 | 25° C | 49% | 1020.7 hPa | - | - | - | - |
| 1777808409 | 25° C | 52% | 1020.7 hPa | - | - | - | - |
| 1777807809 | 24.44° C | 53% | 1020.6 hPa | - | - | - | - |
| 1777807210 | 23.89° C | 52% | 1020.6 hPa | - | - | - | - |
| 1777806610 | 23.33° C | 54% | 1020.6 hPa | - | - | - | - |
| 1777806009 | 24.44° C | 52% | 1020.5 hPa | - | - | - | - |
| 1777805409 | 24.44° C | 52% | 1020.6 hPa | - | - | - | - |
* Rain since midnight (hover to see other rain measurements)
** Current wind speed in m/s (hover to see current wind gust speed)